Theta_e
332 334 336 339 338 338 339 335 336 335 335 333 332 330 332 331 333 336 336 333 331 333 336 335 334 333 330 333 333 327 328 333 335 337 339 339 339 339 339 339 337 335 331
331 335 340 338 336 337 338 338 336 335 335 335 333 335 335 333 334 336 333 330 330 331 330 334 332 329 329 330 327 328 331 330 330 333 335 338 338 338 338 337 336 334 333
332 335 338 338 337 337 338 337 337 336 336 335 336 337 336 335 335 336 336 334 335 331 328 326 332 333 332 331 331 329 326 323 324 326 326 329 334 333 329 327 325 324 323
333 337 339 338 337 338 338 338 337 336 335 336 336 336 336 335 336 337 336 334 333 333 331 330 329 328 331 332 333 334 334 331 328 325 323 321 322 325 324 325 324 321 319
335 337 339 336 335 336 337 337 337 336 336 336 336 336 336 336 336 336 336 335 332 329 331 332 332 326 329 330 333 333 333 331 330 326 323 320 320 332 319 315 316 319 317
338 337 338 335 335 335 335 337 337 336 336 336 335 335 335 336 334 335 335 333 329 329 331 331 331 331 327 331 332 332 331 331 330 322 320 321 319 321 327 319 326 318 317
336 335 338 335 336 334 334 334 335 336 335 335 334 334 334 334 335 335 334 332 331 332 330 329 330 330 331 327 333 332 331 331 332 321 317 317 319 320 330 329 321 328 321
336 336 337 336 334 333 332 333 334 335 334 333 332 332 333 333 333 333 332 332 332 330 328 328 329 328 331 326 327 330 330 332 332 332 332 333 326 319 320 327 322 325 327
330 331 332 335 333 332 332 331 332 332 332 330 329 329 329 329 329 330 330 330 330 330 331 330 328 329 330 331 329 329 330 330 332 331 333 334 334 328 320 321 328 323 324
329 330 330 331 330 333 332 330 330 332 331 329 327 327 328 328 328 328 328 328 328 329 329 330 331 331 331 330 329 330 330 329 330 332 332 333 334 334 331 327 320 331 325
328 328 329 329 330 332 331 330 331 330 330 329 326 326 327 327 327 328 328 328 328 328 329 329 329 329 330 330 330 330 330 330 328 330 332 331 333 333 332 331 330 321 330
326 326 327 327 330 330 329 328 328 329 328 327 325 324 325 325 326 326 326 325 325 324 325 327 328 329 329 330 330 329 329 329 328 328 329 330 328 330 330 330 328 328 324
324 324 326 327 328 327 327 326 326 325 326 325 323 322 322 322 321 318 317 316 315 315 313 313 316 322 328 329 329 329 328 328 328 328 328 328 327 327 328 330 330 329 327
323 323 327 327 326 326 326 326 325 325 324 323 322 320 320 317 314 312 312 312 312 312 313 311 310 310 315 325 328 328 327 327 328 327 328 328 329 330 329 328 328 329 330
321 323 326 325 324 325 325 325 324 323 322 321 320 318 319 315 309 307 307 308 309 309 310 310 309 308 308 311 321 324 325 324 325 326 327 327 328 329 330 330 331 331 331
319 321 324 322 325 323 324 323 322 321 320 319 318 317 317 310 305 304 305 306 307 307 307 306 305 304 304 305 314 320 322 321 322 322 324 325 326 327 329 328 329 331 331
318 320 320 321 323 323 322 322 321 320 319 317 316 316 315 310 302 301 302 304 304 304 302 301 300 299 299 301 304 311 317 319 320 320 320 322 326 325 325 326 328 330 330
316 318 318 319 321 322 321 320 320 319 317 316 315 314 311 306 303 301 301 300 301 301 300 299 298 298 297 297 298 302 307 312 316 316 316 317 318 320 323 324 325 326 326
314 316 317 318 319 319 319 319 318 317 316 314 312 312 307 301 299 298 298 297 298 298 298 297 296 296 296 296 296 296 297 298 300 304 311 314 315 316 318 319 320 322 324
313 315 315 316 317 317 318 316 315 314 313 311 310 309 305 299 298 297 296 295 295 296 296 295 295 295 295 295 295 295 295 294 295 295 296 298 302 307 311 312 315 317 319
311 313 314 313 315 315 314 313 312 311 309 308 308 307 301 296 295 294 294 294 294 294 294 294 294 294 294 294 294 293 293 293 293 293 293 294 294 295 298 304 310 313 313
310 311 312 311 312 313 312 312 311 310 308 306 305 303 299 294 293 293 293 293 293 293 293 293 293 294 293 293 293 293 293 292 292 292 292 292 292 293 293 293 294 295 298
309 309 311 310 310 311 310 309 307 304 303 303 302 301 298 294 293 293 292 292 292 292 292 292 292 292 293 293 292 293 292 292 291 291 291 291 291 291 291 291 292 292 292
309 309 309 309 308 308 308 307 305 306 304 303 301 298 294 292 292 291 291 291 291 291 291 291 291 291 291 291 291 292 292 293 291 291 290 290 290 289 290 290 290 290 291
308 308 307 307 306 305 305 304 303 302 301 300 297 294 292 291 290 290 289 289 289 289 289 289 290 290 290 290 291 291 291 292 292 292 290 289 289 288 288 288 288 289 289
306 306 306 304 304 302 301 300 299 299 298 297 294 292 291 290 289 289 289 289 289 289 288 289 289 289 289 289 289 289 290 291 291 291 291 289 289 288 288 288 288 288 288
Wind_Speed
27 25 22 19 17 18 17 18 19 19 18 17 14 13 13 14 15 16 16 18 21 20 19 16 15 15 16 17 18 19 18 17 17 18 20 20 20 19 19 19 18 19 19
29 26 22 17 18 18 17 17 17 17 17 16 15 15 15 16 16 17 19 20 20 20 19 17 16 15 16 15 16 17 18 18 17 15 16 17 18 18 18 17 16 18 18
29 27 24 19 17 19 19 19 18 18 17 17 17 16 17 17 16 18 18 18 16 17 17 16 14 14 15 15 14 15 15 14 14 13 13 12 13 13 12 12 12 13 15
30 28 26 23 21 21 21 21 21 20 19 19 18 17 18 19 18 17 18 18 16 13 11 13 12 12 12 13 13 13 12 12 12 13 12 12 12 10 9 9 9 11 13
31 29 27 23 22 22 22 23 21 21 20 19 18 18 20 20 19 18 15 11 5 10 12 16 13 11 10 9 10 11 10 10 8 10 12 12 13 11 10 10 9 10 12
32 30 27 23 25 25 24 22 21 21 20 22 21 21 20 21 20 20 19 16 15 17 16 12 10 10 11 8 8 10 11 9 9 10 11 12 12 12 11 12 12 11 12
32 31 27 25 24 25 24 24 21 21 20 19 19 18 19 20 20 20 19 17 15 17 15 11 11 8 6 10 8 8 8 8 8 11 12 13 12 13 12 11 12 13 13
32 33 27 24 25 22 22 23 23 17 17 17 17 17 18 19 18 16 15 14 14 14 13 15 14 11 12 11 10 7 7 7 6 8 10 12 11 10 11 10 11 12 12
30 30 28 24 23 22 22 23 20 22 20 18 18 19 18 17 16 16 16 15 14 14 14 15 15 14 14 12 9 10 6 6 6 8 10 12 10 10 10 10 10 10 11
33 33 30 26 26 25 24 21 22 24 24 27 25 23 17 15 15 16 16 16 14 14 14 13 13 15 15 13 15 13 10 8 6 9 11 15 13 12 11 9 8 9 9
32 32 30 28 28 27 27 26 29 30 28 21 20 16 10 9 11 13 15 15 16 16 16 16 16 14 13 15 16 15 12 10 9 10 9 8 10 10 9 10 8 8 8
33 30 30 31 31 31 31 31 31 26 21 19 20 15 10 11 13 15 17 18 18 17 16 15 14 14 13 14 16 15 13 10 10 10 10 8 4 4 5 6 6 8 8
34 33 31 33 34 33 30 29 27 25 22 20 18 15 10 12 14 14 15 15 15 13 12 12 13 13 14 14 15 13 12 11 11 11 11 9 6 4 4 4 3 4 7
34 33 38 35 34 31 29 28 26 24 21 18 16 15 13 13 14 15 15 16 16 15 14 13 13 13 13 15 16 15 14 12 12 11 11 12 9 8 4 4 4 4 3
34 36 36 36 37 32 29 28 26 23 20 19 15 15 15 14 14 14 14 14 15 15 15 14 14 14 14 15 15 16 15 13 11 10 11 12 11 14 16 15 15 12 10
34 34 34 33 36 31 29 27 25 22 20 17 13 13 14 14 14 13 13 13 13 14 14 14 15 16 16 16 17 17 16 15 15 13 11 11 13 16 16 15 14 15 12
35 36 36 34 35 33 28 27 25 23 21 18 14 13 14 14 13 12 12 12 11 11 11 12 13 14 16 17 16 17 18 19 19 16 14 14 14 14 16 15 16 19 15
37 37 35 34 35 35 30 28 26 23 20 18 15 14 13 14 15 13 12 12 12 12 12 12 12 14 15 15 16 17 17 17 18 18 17 18 17 17 16 16 17 17 14
36 38 37 36 36 32 32 29 28 24 21 18 15 13 13 14 14 14 14 12 12 13 13 13 13 12 13 14 15 15 15 15 16 16 18 20 18 18 17 17 19 18 15
33 35 34 34 34 36 33 31 26 22 20 18 14 12 13 13 14 13 12 12 12 13 13 13 12 13 13 13 14 13 13 13 13 13 15 16 17 20 21 20 19 21 17
31 33 34 33 34 33 32 29 26 24 20 17 14 12 13 14 14 13 12 12 12 12 12 13 13 13 14 14 12 11 10 10 10 11 11 12 13 13 15 19 23 24 21
30 30 32 31 30 31 30 27 25 23 20 17 16 15 15 14 13 13 13 13 13 13 13 13 13 14 14 15 13 11 7 8 10 10 10 10 10 11 11 13 14 16 18
29 28 29 29 27 29 28 27 25 21 19 19 17 15 15 15 15 15 14 13 13 13 13 13 14 14 15 15 12 8 5 6 10 10 10 10 9 10 10 10 11 12 13
27 26 25 25 24 24 25 24 22 21 20 19 16 16 17 16 16 14 14 13 13 13 13 13 14 14 14 14 14 14 8 4 6 6 11 10 10 9 9 9 10 10 10
24 23 22 21 20 20 20 19 17 16 16 17 18 18 17 16 15 14 14 13 12 12 12 13 13 14 14 14 14 14 13 11 8 6 7 11 9 7 6 6 7 8 8
21 21 21 19 18 18 17 16 15 16 19 20 20 19 18 17 16 15 14 13 12 12 12 12 12 12 12 12 13 13 12 11 10 8 7 12 10 8 6 5 5 6 7
Wind_Direction
171 159 149 158 162 156 158 166 164 167 170 170 166 156 146 144 142 138 134 131 123 114 108 105 114 115 112 110 105 104 109 108 103 100 104 108 109 110 112 111 104 99 96
163 154 149 161 157 158 161 161 164 167 165 166 159 153 148 146 147 144 141 136 132 127 121 115 112 118 118 116 113 111 110 109 107 103 104 109 111 112 111 108 106 101 97
161 151 152 159 157 154 158 158 158 157 156 155 150 150 146 144 144 149 146 144 128 122 116 117 115 119 120 121 120 115 111 114 116 112 106 114 122 118 117 118 113 107 107
157 155 156 160 162 157 156 153 151 149 147 144 143 143 145 144 144 146 145 135 114 118 138 129 123 125 128 123 123 121 119 115 113 112 105 110 114 122 122 121 117 116 117
160 157 159 166 172 167 162 159 156 149 146 140 137 138 140 144 146 147 152 169 167 91 138 139 130 131 128 134 131 120 125 117 114 112 112 106 106 103 107 109 119 120 121
163 162 164 173 175 176 174 165 158 153 149 146 142 139 138 144 147 142 142 147 133 137 148 154 148 125 145 141 139 130 119 107 96 113 118 111 109 108 94 101 100 109 120
166 168 168 178 178 180 181 181 170 161 157 162 161 159 157 154 151 152 148 146 145 152 158 155 166 175 168 148 152 138 123 112 103 107 113 111 106 113 108 102 109 101 110
170 170 174 181 185 184 190 188 184 183 184 178 174 171 171 170 173 168 167 169 168 170 168 165 174 180 176 163 173 156 149 144 123 109 112 100 97 111 119 113 112 117 114
172 180 183 182 188 194 193 195 196 206 208 188 180 175 174 179 175 174 175 178 181 179 182 184 180 182 181 170 180 178 165 145 155 128 121 111 115 113 112 118 121 119 121
179 184 188 190 193 187 183 187 196 190 187 196 187 182 188 184 189 186 188 190 189 190 190 190 197 191 183 184 182 186 186 183 161 149 133 112 108 111 114 112 128 134 134
183 188 192 195 194 189 185 184 185 190 195 205 196 197 196 201 203 193 191 189 186 188 190 194 202 201 190 190 195 195 190 184 179 177 158 142 127 117 117 122 120 137 142
183 189 197 199 195 193 193 196 201 205 210 202 215 234 221 203 197 196 192 192 193 190 188 191 196 197 195 199 197 198 200 203 199 189 189 184 186 173 131 124 129 137 142
183 190 199 204 205 207 204 204 207 210 207 203 217 245 248 209 199 193 191 192 193 197 191 189 192 195 197 198 205 200 199 214 213 198 193 181 198 180 189 164 148 126 148
188 193 197 204 209 206 207 205 207 207 208 214 221 251 254 220 204 198 194 192 192 194 199 199 200 206 204 200 200 198 206 211 224 219 207 206 147 130 164 197 205 175 165
190 195 198 207 213 210 208 208 210 215 219 221 232 254 247 220 211 204 199 197 196 196 197 203 207 211 211 209 207 200 196 200 205 211 217 200 171 158 142 143 122 127 163
195 199 199 208 198 207 212 210 210 213 220 224 229 247 243 221 213 209 208 206 202 200 201 201 203 207 211 206 201 197 202 196 198 196 191 212 209 198 176 174 161 149 161
200 200 206 210 208 205 213 209 212 215 216 222 227 235 238 222 219 215 213 212 215 214 207 203 204 202 203 203 204 202 202 206 209 203 197 195 194 215 217 211 189 174 170
204 198 203 206 203 196 211 209 212 209 214 219 223 234 238 223 216 214 215 212 215 218 217 211 207 207 203 200 199 199 202 208 210 211 205 206 215 216 217 223 228 224 223
205 198 202 206 208 208 199 206 203 205 210 216 217 227 232 227 221 213 216 215 218 221 219 216 210 205 207 203 201 202 204 209 214 217 218 218 213 214 217 223 230 231 223
207 202 202 206 208 206 203 196 198 202 206 209 213 223 232 224 224 221 220 216 218 218 217 215 212 206 204 207 200 198 200 206 213 219 222 225 229 231 227 223 229 234 236
204 203 204 209 207 205 200 196 195 199 201 206 207 215 224 221 216 215 213 216 216 214 216 214 213 209 202 198 202 195 194 202 208 214 221 226 228 228 228 234 235 236 237
199 203 204 208 211 209 206 203 202 203 201 205 205 210 217 219 218 213 210 213 215 215 214 214 215 215 209 203 206 205 207 215 214 211 214 220 224 228 230 232 233 236 238
195 199 200 205 211 211 208 204 199 197 198 201 204 213 218 220 219 218 214 211 212 211 213 213 214 216 218 211 205 200 202 214 206 209 209 214 218 221 221 221 226 232 236
191 195 197 200 208 212 213 211 211 213 208 209 210 212 212 212 213 211 211 211 211 213 213 215 218 219 223 232 227 224 234 239 197 200 215 213 217 218 219 219 217 222 228
188 192 194 199 201 208 210 213 218 220 219 214 208 206 207 207 204 203 202 203 204 206 209 213 217 221 224 228 229 233 238 234 229 218 200 200 200 201 205 215 220 222 226
181 188 192 197 197 200 206 213 222 226 220 209 203 202 203 203 201 198 197 198 200 202 203 207 211 215 219 223 228 232 233 230 231 226 215 190 188 190 201 215 215 214 223